Hourly Data Report for May 28, 2012

All times are specified in Local Standard Time (LST). Add 1 hour to adjust for Daylight Saving Time where and when it is observed.

DEER LAKE A
NEWFOUNDLAND

49°12'33.000" N
57°23'40.000" W
21.90 m
8401502
71809
YDF

Download Data

Hourly Data (May 2012)
Hourly Data Report for May 28, 2012
Temp Definition
°C
Dew Point Temp Definition
°C
Rel Hum Definition
%
Wind Dir Definition
10's deg

Wind Spd Definition
km/h
Visibility Definition
km
Stn Press Definition
kPa
Hmdx Definition


Wind Chill Definition


Weather Definition


TIME
00:30 Legend Double Dagger 4.0 0.2 76 17 5 10.0 101.36     LegendNANA
01:30 Legend Double Dagger 3.7 0.4 79 30 5 10.0 101.30     LegendNANA
02:30 Legend Double Dagger 3.4 0.5 81   0 10.0 101.25     Mostly Cloudy
03:30 Legend Double Dagger 2.2 0.1 86 15 4 10.0 101.21     LegendNANA
04:30 Legend Double Dagger 2.7 -0.2 81 21 5 10.0 101.24     LegendNANA
05:30 Legend Double Dagger 2.5 0.1 84 23 4 10.0 101.24     Mostly Cloudy
06:30 Legend Double Dagger 4.0 1.4 83 25 5 10.0 101.23     LegendNANA
07:30 Legend Double Dagger 6.0 -0.3 64 22 19 10.0 101.24     LegendNANA
08:30 Legend Double Dagger 8.9 1.4 59 24 22 10.0 101.20     Mostly Cloudy
09:30 Legend Double Dagger 9.7 1.4 56 22 28 10.0 101.12     LegendNANA
10:30 Legend Double Dagger 9.6 LegendMM LegendMM LegendMM LegendMM 10.0 101.10     LegendNANA
11:30 Legend Double Dagger 11.6 -2.6 37 31 14 10.0 101.07     Mostly Cloudy
12:30 Legend Double Dagger 10.9 -3.9 35 29 25 10.0 101.11     LegendNANA
13:30 Legend Double Dagger 10.3 -4.5 35 34 18 10.0 101.09     LegendNANA
14:30 Legend Double Dagger 10.2 -4.2 36 31 19 10.0 101.10     Mainly Clear
15:30 Legend Double Dagger 9.8 -4.9 35 30 19 10.0 101.11     LegendNANA
16:30 Legend Double Dagger 9.0 -5.3 36 30 19 10.0 101.12     LegendNANA
17:30 Legend Double Dagger 7.1 -4.0 45 30 21 10.0 101.13     Mostly Cloudy
18:30 Legend Double Dagger 6.7 -2.7 51 31 17 10.0 101.17     LegendNANA
19:30 Legend Double Dagger 6.3 -2.8 52 34 9 10.0 101.23     LegendNANA
20:30 Legend Double Dagger 4.4 0.0 73 3 11 10.0 101.35     Mostly Cloudy
21:30 Legend Double Dagger 3.5 0.0 78 4 12 10.0 101.41     LegendNANA
22:30 Legend Double Dagger 2.9 0.5 84   0 10.0 101.41     LegendNANA
23:30 Legend Double Dagger 0.7 -0.9 89 23 4 10.0 101.45     Mainly Clear

Notes on Data Quality.

Legend

  • E = Estimated
  • M = Missing
  • NA = Not Available
  • ‡ = Partner data that is not subject to review by the National Climate Archives
Date modified: